GW4756 Weather Reports


time (UTC)temp
F
wind
direction
speed
knots
gust
knots
rain 1hr
in
rain 24hr
in
rain mn
in
humidity
%
barometer
mb
20260510162340 77 358 0.9 7.0 0.00 0.00 0.00 44 1014.8
20260510161840 77 13 0.9 2.6 0.00 0.00 0.00 43 1014.8
20260510161340 77 351 0.0 3.5 0.00 0.00 0.00 46 1014.9
20260510160840 77 230 0.9 6.1 0.00 0.00 0.00 44 1014.8
20260510160340 77 323 0.0 6.1 0.00 0.00 0.00 45 1014.9
20260510160106 77 352 0.0 3.5 0.00 0.00 0.00 52 1015.0
20260510155559 77 255 1.7 2.6 0.00 0.00 0.00 55 1015.1
20260510154840 76 276 0.9 2.6 0.00 0.00 0.00 57 1015.4
20260510154340 76 262 0.9 3.5 0.00 0.00 0.00 55 1015.3
20260510153340 76 246 0.0 2.6 0.00 0.00 0.00 57 1015.3
20260510153107 76 246 1.7 3.5 0.00 0.00 0.00 55 1015.5
20260510152340 75 259 1.7 7.0 0.00 0.00 0.00 59 1015.5
20260510151840 74 268 2.6 7.0 0.00 0.00 0.00 57 1015.2
20260510151340 74 333 1.7 5.2 0.00 0.00 0.00 58 1015.2
20260510150840 74 32 0.9 3.5 0.00 0.00 0.00 59 1015.0
20260510150340 74 84 0.0 3.5 0.00 0.00 0.00 60 1015.3
20260510145840 73 116 1.7 2.6 0.00 0.00 0.00 62 1015.1
20260510145340 73 211 1.7 3.5 0.00 0.00 0.00 62 1015.1
20260510145100 73 69 0.9 3.5 0.00 0.00 0.00 62 1015.4
20260510144558 73 125 0.9 6.1 0.00 0.00 0.00 62 1015.1
20260510143840 73 275 1.7 6.1 0.00 0.00 0.00 64 1015.2
20260510143341 72 43 0.9 5.2 0.00 0.00 0.00 65 1015.2
20260510142840 72 260 0.9 3.5 0.00 0.00 0.00 64 1015.0
20260510142340 72 271 0.0 3.5 0.00 0.00 0.00 67 1015.0
20260510141840 71 258 1.7 3.5 0.00 0.00 0.00 68 1015.1
20260510141340 71 261 3.5 3.5 0.00 0.00 0.00 69 1015.1
20260510140840 71 338 1.7 2.6 0.00 0.00 0.00 69 1015.1
20260510140340 71 337 0.9 3.5 0.00 0.00 0.00 69 1015.0
20260510135840 71 346 0.9 3.5 0.00 0.00 0.00 70 1015.3
20260510135340 70 307 0.9 3.5 0.00 0.00 0.00 72 1015.2
20260510134853 70 328 0.9 3.5 0.00 0.00 0.00 71 1015.1
20260510133840 70 351 0.9 5.2 0.00 0.00 0.00 73 1014.9
20260510133340 69 253 1.7 5.2 0.00 0.00 0.00 77 1014.8
20260510132840 69 329 0.9 7.0 0.00 0.00 0.00 77 1014.9
20260510132604 69 283 3.5 7.0 0.00 0.00 0.00 77 1015.0
20260510131840 68 311 1.7 3.5 0.00 0.00 0.00 79 1015.1
20260510131340 68 260 1.7 2.6 0.00 0.00 0.00 80 1015.1
20260510130840 67 38 0.9 2.6 0.00 0.00 0.00 80 1014.8
20260510130340 67 343 1.7 2.6 0.00 0.00 0.00 87 1014.7
20260510125840 66 327 0.9 2.6 0.00 0.00 0.00 89 1014.5
20260510125611 66 23 0.9 2.6 0.00 0.00 0.00 90 1014.4
20260510124840 65 16 1.7 2.6 0.00 0.00 0.00 91 1014.5
20260510124610 65 271 0.9 2.6 0.00 0.00 0.00 91 1014.6
20260510123840 64 325 0.0 1.7 0.00 0.00 0.00 92 1014.3
20260510123341 64 315 0.0 3.5 0.00 0.00 0.00 92 1014.3
20260510122839 64 249 0.0 3.5 0.00 0.00 0.00 92 1014.6
20260510122340 64 265 0.0 2.6 0.00 0.00 0.00 92 1014.4
20260510122103 63 277 0.9 2.6 0.00 0.00 0.00 93 1014.3
20260510121340 63 255 0.9 1.7 0.00 0.00 0.00 93 1014.4
20260510120840 63 263 0.9 2.6 0.00 0.00 0.00 93 1014.3
20260510120340 63 265 1.7 2.6 0.00 0.00 0.00 93 1014.4
20260510115840 63 263 1.7 5.2 0.00 0.00 0.00 93 1014.6
20260510115603 62 261 2.6 5.2 0.00 0.00 0.00 93 1014.1
20260510114840 62 268 1.7 5.2 0.00 0.00 0.00 93 1014.4
20260510114340 62 274 2.6 3.5 0.00 0.00 0.00 93 1014.3
20260510113840 62 268 1.7 3.5 0.00 0.00 0.00 93 1014.0
20260510113340 62 263 2.6 2.6 0.00 0.00 0.00 93 1014.0
20260510113103 62 266 1.7 1.7 0.00 0.00 0.00 93 1014.1
20260510112340 62 257 0.9 1.7 0.00 0.00 0.00 93 1014.0
20260510111840 61 257 0.0 0.9 0.00 0.00 0.00 93 1013.7
20260510111340 61 257 0.0 0.9 0.00 0.00 0.00 93 1013.7
20260510111059 61 257 0.0 0.0 0.00 0.00 0.00 92 1013.6
20260510110340 61 257 0.0 0.9 0.00 0.00 0.00 92 1013.5
20260510105840 61 257 0.0 0.9 0.00 0.00 0.00 92 1013.5
20260510105339 61 257 0.9 0.9 0.00 0.00 0.00 92 1013.4
20260510104840 61 263 0.0 1.7 0.00 0.00 0.00 92 1013.5
20260510104602 61 256 0.9 1.7 0.00 0.00 0.00 92 1013.5
20260510103840 61 255 0.0 0.0 0.00 0.00 0.00 92 1013.5
20260510103340 61 254 0.0 0.0 0.00 0.00 0.00 92 1013.3
20260510102840 61 254 0.0 0.9 0.00 0.00 0.00 92 1013.1
20260510102559 61 254 0.0 1.7 0.00 0.00 0.00 92 1013.0
20260510101840 61 255 0.9 3.5 0.00 0.00 0.00 92 1012.6
20260510100839 62 261 1.7 5.2 0.00 0.00 0.00 91 1012.7
20260510100340 62 268 2.6 5.2 0.00 0.00 0.00 91 1012.7
20260510095839 62 264 1.7 3.5 0.00 0.00 0.00 91 1012.4
20260510095341 62 271 2.6 3.5 0.00 0.00 0.00 91 1012.6
20260510094340 62 263 1.7 3.5 0.00 0.00 0.00 91 1012.5
20260510093840 62 267 0.9 3.5 0.00 0.00 0.00 91 1012.3
20260510093340 62 267 0.9 3.5 0.00 0.00 0.00 91 1012.3
20260510092840 62 270 2.6 2.6 0.00 0.00 0.00 91 1012.5
20260510092340 62 251 0.9 2.6 0.00 0.00 0.00 91 1012.2
20260510092058 62 251 0.9 2.6 0.00 0.00 0.00 91 1012.2
20260510091340 62 265 0.9 2.6 0.00 0.00 0.00 90 1012.2
20260510090840 62 259 0.9 1.7 0.00 0.00 0.00 90 1012.0
20260510090340 62 259 0.9 3.5 0.00 0.00 0.00 90 1012.1
20260510085840 62 260 1.7 1.7 0.00 0.00 0.00 90 1012.3
20260510085340 62 260 0.9 1.7 0.00 0.00 0.00 90 1012.1
20260510084840 62 260 0.9 0.9 0.00 0.00 0.00 90 1012.0
20260510084556 62 260 0.0 0.0 0.00 0.00 0.00 90 1011.8
20260510083556 62 260 0.0 0.9 0.00 0.00 0.00 90 1011.9
20260510083106 62 260 0.0 2.6 0.00 0.00 0.00 90 1011.6
20260510082340 62 269 0.0 0.9 0.00 0.00 0.00 90 1011.9
20260510081840 62 256 0.0 0.0 0.00 0.00 0.00 90 1011.7
20260510081340 62 256 0.0 0.9 0.00 0.00 0.00 90 1011.7
20260510080606 63 256 0.0 1.7 0.00 0.00 0.00 89 1011.7
20260510080100 63 263 0.0 1.7 0.00 0.00 0.00 89 1011.7
20260510075338 63 263 0.9 2.6 0.00 0.00 0.00 89 1011.7
20260510074839 63 269 0.9 2.6 0.00 0.00 0.00 89 1011.7
20260510074338 63 261 0.9 2.6 0.00 0.00 0.00 89 1011.7
20260510073838 63 268 1.7 1.7 0.00 0.00 0.00 89 1011.6
20260510073338 63 268 0.9 2.6 0.00 0.00 0.00 89 1011.6
20260510072838 63 263 0.9 2.6 0.00 0.00 0.00 89 1011.7
20260510072338 63 263 0.9 2.6 0.00 0.00 0.00 89 1011.4
20260510071838 63 263 0.9 2.6 0.00 0.00 0.00 89 1011.3
20260510071338 63 265 0.9 1.7 0.00 0.00 0.00 89 1011.5
20260510070838 63 266 1.7 1.7 0.00 0.00 0.00 89 1011.8
20260510070338 62 263 0.9 0.9 0.00 0.00 0.00 89 1011.7
20260510065837 62 263 0.9 0.9 0.00 0.00 0.00 89 1011.7
20260510065337 62 263 0.9 1.7 0.00 0.00 0.00 89 1011.6
20260510064837 62 263 0.9 1.7 0.00 0.00 0.00 89 1011.7
20260510064337 63 263 0.0 0.0 0.00 0.00 0.00 89 1011.8
20260510063837 63 263 0.0 0.0 0.00 0.00 0.00 89 1011.5
20260510063337 63 263 0.0 0.0 0.00 0.00 0.00 89 1011.6
20260510062837 63 263 0.0 0.0 0.00 0.00 0.00 89 1011.5
20260510062337 63 263 0.0 0.9 0.00 0.00 0.00 89 1011.2
20260510061837 63 263 0.0 2.6 0.00 0.00 0.00 89 1011.4
20260510061338 63 263 0.9 2.6 0.00 0.00 0.00 88 1011.4
20260510060837 63 275 1.7 2.6 0.00 0.00 0.00 88 1011.5
20260510060337 63 275 1.7 2.6 0.00 0.00 0.00 88 1011.5
20260510055837 63 268 0.0 1.7 0.00 0.00 0.00 88 1011.5
20260510055337 63 267 0.9 2.6 0.00 0.00 0.00 88 1011.5
20260510054837 63 267 0.9 2.6 0.00 0.00 0.00 88 1011.8
20260510054337 63 246 0.0 1.7 0.00 0.00 0.00 88 1011.8
20260510053337 63 240 0.9 1.7 0.00 0.00 0.00 88 1011.9
20260510052837 64 239 0.9 2.6 0.00 0.00 0.00 89 1012.0
20260510052558 63 231 0.9 2.6 0.00 0.00 0.00 88 1011.9
20260510051837 64 254 0.9 2.6 0.00 0.00 0.00 88 1012.0
20260510051337 64 268 0.9 2.6 0.00 0.00 0.00 88 1012.1
20260510050838 64 275 1.7 2.6 0.00 0.00 0.00 88 1011.9
20260510050337 64 278 1.7 2.6 0.00 0.00 0.00 88 1011.9
20260510045837 64 250 0.9 2.6 0.00 0.00 0.00 88 1012.3
20260510045101 64 253 0.9 1.7 0.00 0.00 0.00 88 1012.2
20260510044337 64 254 0.9 1.7 0.00 0.00 0.00 88 1012.2
20260510043837 64 254 0.9 1.7 0.00 0.00 0.00 88 1012.1
20260510043602 64 254 0.9 1.7 0.00 0.00 0.00 87 1012.2
20260510042837 64 253 0.9 1.7 0.00 0.00 0.00 87 1012.1
20260510042337 64 253 0.9 1.7 0.00 0.00 0.00 87 1012.0
20260510041837 64 253 0.9 1.7 0.00 0.00 0.00 87 1012.0
20260510041558 64 253 0.9 1.7 0.00 0.00 0.00 87 1012.2
20260510041102 64 253 0.9 1.7 0.00 0.00 0.00 87 1012.1
20260510040337 64 254 0.9 1.7 0.00 0.00 0.00 87 1012.1
20260510035837 64 253 0.9 1.7 0.00 0.00 0.00 86 1011.9
20260510035337 64 254 0.9 1.7 0.00 0.00 0.00 86 1012.0
20260510034837 65 253 0.9 1.7 0.00 0.00 0.00 86 1011.9
20260510034337 65 253 0.0 1.7 0.00 0.00 0.00 86 1011.9
20260510033837 65 253 0.9 1.7 0.00 0.00 0.00 86 1012.0
20260510033337 65 253 0.9 1.7 0.00 0.00 0.00 86 1012.1
20260510032838 65 261 0.9 1.7 0.00 0.00 0.00 86 1011.9
20260510032337 65 259 0.9 1.7 0.00 0.00 0.00 85 1011.7
20260510032100 65 257 0.9 1.7 0.00 0.00 0.00 85 1011.6
20260510031337 65 254 0.9 1.7 0.00 0.00 0.00 85 1011.7
20260510030837 65 254 0.9 2.6 0.00 0.00 0.00 85 1011.8
20260510030337 65 255 0.9 2.6 0.00 0.00 0.00 85 1011.6
20260510025837 65 262 1.7 2.6 0.00 0.00 0.00 85 1011.6
20260510025337 66 264 1.7 2.6 0.00 0.00 0.00 85 1011.7
20260510024836 66 264 0.9 2.6 0.00 0.00 0.00 84 1011.6
20260510024602 66 269 1.7 1.7 0.00 0.00 0.00 84 1011.7
20260510023603 66 269 0.9 1.7 0.00 0.00 0.00 84 1011.6
20260510022837 66 269 0.9 1.7 0.00 0.00 0.00 84 1011.6
20260510022337 66 269 0.9 1.7 0.00 0.00 0.00 84 1011.7
20260510021837 66 269 0.9 1.7 0.00 0.00 0.00 84 1011.5
20260510021337 66 269 0.9 1.7 0.00 0.00 0.00 84 1011.6
20260510020837 66 251 0.0 0.9 0.00 0.00 0.00 84 1011.6
20260510020337 66 251 0.0 1.7 0.00 0.00 0.00 84 1011.4
20260510015837 66 251 0.0 1.7 0.00 0.00 0.00 83 1011.5
20260510015337 66 250 0.9 0.9 0.00 0.00 0.00 83 1011.4
20260510014837 66 250 0.0 0.0 0.00 0.00 0.00 83 1011.3
20260510014337 66 249 0.0 0.0 0.00 0.00 0.00 83 1011.2
20260510013837 66 249 0.0 0.0 0.00 0.00 0.00 83 1011.0
20260510013337 66 249 0.0 0.0 0.00 0.00 0.00 83 1010.9
20260510012837 66 249 0.0 0.0 0.00 0.00 0.00 83 1010.9
20260510011837 66 249 0.0 0.0 0.00 0.00 0.00 82 1010.7
20260510011337 66 249 0.0 0.0 0.00 0.00 0.00 81 1010.8
20260510010837 66 249 0.0 0.0 0.00 0.00 0.00 81 1010.9
20260510010337 67 249 0.0 0.0 0.00 0.00 0.00 80 1010.7
20260510005337 67 249 0.0 0.0 0.00 0.00 0.00 80 1010.7
20260510004837 67 249 0.0 0.0 0.00 0.00 0.00 78 1010.6
20260510004337 68 249 0.0 0.0 0.00 0.00 0.00 78 1010.5
20260510003837 68 249 0.0 0.0 0.00 0.00 0.00 77 1010.5
20260510003555 69 249 0.0 0.0 0.00 0.00 0.00 77 1010.5
20260510002837 69 249 0.0 0.0 0.00 0.00 0.00 76 1010.4
20260510002337 69 249 0.0 0.0 0.00 0.00 0.00 76 1010.6
20260510001837 69 249 0.0 0.0 0.00 0.00 0.00 76 1010.5
20260510001337 69 249 0.0 0.0 0.00 0.00 0.00 75 1010.7
20260510000837 70 249 0.0 0.0 0.00 0.00 0.00 75 1010.4
20260510000337 70 249 0.0 0.0 0.00 0.00 0.00 75 1010.3
20260509235837 70 249 0.0 0.0 0.00 0.00 0.00 74 1010.3
20260509235337 70 249 0.0 0.0 0.00 0.00 0.00 74 1010.3
20260509234337 71 249 0.0 1.7 0.00 0.00 0.00 73 1010.1
20260509233837 71 249 0.0 1.7 0.00 0.00 0.00 73 1009.9
20260509233336 71 249 0.0 2.6 0.00 0.00 0.00 72 1009.8
20260509232837 71 249 0.9 2.6 0.00 0.00 0.00 72 1009.9
20260509232337 71 249 0.9 2.6 0.00 0.00 0.00 72 1010.0
20260509231837 71 269 1.7 2.6 0.00 0.00 0.00 72 1009.8
20260509231337 71 262 0.0 2.6 0.00 0.00 0.00 72 1009.8
20260509230837 71 269 0.9 2.6 0.00 0.00 0.00 72 1010.0
20260509230337 72 235 1.7 2.6 0.00 0.00 0.00 71 1009.8
20260509225837 72 245 0.0 2.6 0.00 0.00 0.00 71 1009.8
20260509225337 72 255 0.0 3.5 0.00 0.00 0.00 71 1009.6
20260509224837 72 262 1.7 3.5 0.00 0.00 0.00 71 1009.5
20260509224338 72 276 0.0 2.6 0.00 0.00 0.00 71 1009.6
20260509223837 72 90 0.9 1.7 0.00 0.00 0.00 71 1009.6
20260509223337 72 149 0.0 3.5 0.00 0.00 0.00 70 1009.7
20260509222837 72 262 0.0 3.5 0.00 0.00 0.00 70 1010.0
20260509222336 72 281 2.6 3.5 0.00 0.00 0.00 70 1009.9
20260509221836 72 264 1.7 3.5 0.00 0.00 0.00 70 1009.9
20260509221337 72 291 2.6 3.5 0.00 0.00 0.00 70 1010.0
20260509220837 72 269 0.0 5.2 0.00 0.00 0.00 70 1010.0
20260509220337 72 273 2.6 5.2 0.00 0.00 0.00 71 1009.9
20260509215837 72 225 1.7 5.2 0.00 0.00 0.00 70 1010.0
20260509215337 72 257 1.7 3.5 0.00 0.00 0.00 71 1009.8
20260509214837 72 305 1.7 3.5 0.00 0.00 0.00 70 1009.8
20260509214337 72 75 0.0 3.5 0.00 0.00 0.00 70 1009.8
20260509213836 72 264 0.0 3.5 0.00 0.00 0.00 70 1009.8
20260509213555 72 271 0.0 3.5 0.00 0.00 0.00 70 1009.8
20260509213101 72 349 1.7 7.8 0.00 0.00 0.00 70 1009.7
20260509212337 72 254 0.0 9.6 0.00 0.00 0.00 69 1009.7
20260509211837 72 244 1.7 9.6 0.00 0.00 0.00 69 1009.5
20260509211337 72 260 0.9 6.1 0.00 0.00 0.00 70 1009.5
20260509210337 71 279 0.0 5.2 0.00 0.00 0.00 69 1009.5
20260509205838 71 274 0.9 6.1 0.00 0.00 0.00 69 1009.7
20260509205338 71 240 2.6 6.1 0.00 0.00 0.00 69 1009.6
20260509205059 71 263 0.0 6.1 0.00 0.00 0.00 69 1009.9
20260509204337 71 265 0.0 5.2 0.00 0.00 0.00 70 1009.7
20260509203837 71 268 3.5 5.2 0.00 0.00 0.00 69 1009.5
20260509203337 71 253 2.6 3.5 0.00 0.00 0.00 69 1009.6
20260509202837 71 261 1.7 3.5 0.00 0.00 0.00 69 1009.8
20260509202336 71 19 0.9 3.5 0.00 0.00 0.00 69 1009.7
20260509201836 71 25 0.9 2.6 0.00 0.00 0.00 69 1009.6
20260509201601 71 289 0.9 5.2 0.00 0.00 0.00 69 1009.7
20260509200837 71 123 0.9 5.2 0.00 0.00 0.00 68 1010.0
20260509200337 71 57 0.9 2.6 0.00 0.00 0.00 68 1009.9
20260509195837 71 195 0.9 5.2 0.00 0.00 0.00 68 1009.9
20260509195337 71 54 0.9 5.2 0.00 0.00 0.00 67 1009.9
20260509194837 71 261 0.9 2.6 0.00 0.00 0.00 67 1010.1
20260509194602 71 219 0.0 2.6 0.00 0.00 0.00 66 1010.2
20260509193837 71 203 1.7 7.8 0.00 0.00 0.00 66 1010.1
20260509193337 71 305 0.0 7.8 0.00 0.00 0.00 65 1010.1
20260509192837 72 238 2.6 6.1 0.00 0.00 0.00 64 1010.3
20260509192601 72 238 0.9 6.1 0.00 0.00 0.00 63 1010.3
20260509191837 73 267 2.6 5.2 0.00 0.00 0.00 62 1010.4
20260509191559 73 307 0.9 3.5 0.00 0.00 0.00 61 1010.1
20260509190837 74 259 0.9 5.2 0.00 0.00 0.00 60 1010.1
20260509190337 74 247 0.9 9.6 0.00 0.00 0.00 60 1010.1
20260509185838 75 272 2.6 9.6 0.00 0.00 0.00 59 1010.3
20260509184836 76 124 3.5 7.0 0.00 0.00 0.00 56 1010.2
20260509184338 75 297 3.5 7.0 0.00 0.00 0.00 59 1010.3
20260509183837 74 292 1.7 8.7 0.00 0.00 0.00 58 1010.1
20260509183337 74 193 2.6 8.7 0.00 0.00 0.00 58 1010.1
20260509182837 74 70 0.9 6.1 0.00 0.00 0.00 60 1010.2
20260509182337 73 211 0.0 6.1 0.00 0.00 0.00 59 1010.3
20260509181837 73 242 0.9 5.2 0.00 0.00 0.00 59 1010.6
20260509181337 73 116 0.9 5.2 0.00 0.00 0.00 58 1010.7
20260509181059 73 244 0.9 3.5 0.00 0.00 0.00 59 1010.8
20260509180337 73 33 0.0 7.0 0.00 0.00 0.00 57 1010.8
20260509175837 73 168 1.7 7.0 0.00 0.00 0.00 57 1010.9
20260509175628 73 103 1.7 3.5 0.00 0.00 0.00 56 1011.1
20260509174837 73 228 1.7 5.2 0.00 0.00 0.00 57 1011.1
20260509174336 72 358 1.7 5.2 0.00 0.00 0.00 58 1011.0
20260509174105 72 253 0.9 2.6 0.00 0.00 0.00 58 1010.8
20260509173557 72 103 0.9 5.2 0.00 0.00 0.00 57 1011.0
20260509172837 72 155 0.9 5.2 0.00 0.00 0.00 60 1011.3
20260509172337 71 269 0.0 6.1 0.00 0.00 0.00 60 1011.1
20260509172102 71 312 3.5 6.1 0.00 0.00 0.00 58 1011.3
20260509171336 72 98 1.7 7.0 0.00 0.00 0.00 57 1011.3
20260509170836 72 101 1.7 7.8 0.00 0.00 0.00 57 1011.5
20260509170336 72 282 0.0 7.8 0.00 0.00 0.00 58 1011.5
20260509165836 72 44 1.7 3.5 0.00 0.00 0.00 57 1011.5
20260509165335 72 179 1.7 5.2 0.00 0.00 0.00 57 1011.7
20260509164835 72 55 1.7 5.2 0.00 0.00 0.00 59 1011.8
20260509164335 71 267 3.5 5.2 0.00 0.00 0.00 60 1011.7
20260509163835 71 296 0.9 5.2 0.00 0.00 0.00 60 1011.7
20260509163336 72 63 0.9 3.5 0.00 0.00 0.00 58 1011.9
20260509162836 72 14 1.7 5.2 0.00 0.00 0.00 60 1011.6